Austin, TX

12:36 AM CDT on June 19, 2018 (GMT -0500)
Austin

Weather History for KATT - August, 2017

Change the Weather History Date:

Sunday, August 13, 2017

  Actual Average Record
Temperature  
Mean Temperature 90 °F 86 °F  
Max Temperature 101 °F 98 °F 107 °F (1925)
Min Temperature 78 °F 75 °F 61 °F (1967)
Degree Days  
Heating Degree Days 0 0  
Month to date heating degree days 0 0  
Since 1 June heating degree days 0 0  
Since 1 July heating degree days 0 0  
Cooling Degree Days 25 21  
Month to date cooling degree days 280 273  
Year to date cooling degree days 2468 2022  
Since 1 June cooling degree days 1606 1409  
Growing Degree Days 39 (Base 50)    
Moisture  
Dew Point 70 °F    
Average Humidity 58    
Maximum Humidity 85    
Minimum Humidity 31    
Precipitation  
Precipitation 0.00 in 0.06 in 2.00 in (2003)
Month to date precipitation 2.44 0.78  
Year to date precipitation 18.50 20.52  
Snow  
Snow 0.00 in - - ()
Month to date snowfall 0.0  
Since 1 June snowfall 0.0  
Since 1 July snowfall 0.0  
Snow Depth 0.00 in    
Sea Level Pressure  
Sea Level Pressure 29.85 in    
Wind  
Wind Speed 6 mph (South)    
Max Wind Speed 13 mph    
Max Gust Speed 22 mph    
Visibility 10 miles    
Events      
T = Trace of Precipitation, MM = Missing Value Source: NWS Daily Summary

Daily Weather History Graph

Daily Weather History Graph

Search for Another Location

Airport or City:

Astronomy

Aug. 13, 2017 Rise Set
Actual Time 6:57 AM CDT 8:14 PM CDT
Civil Twilight 6:31 AM CDT 8:39 PM CDT
Nautical Twilight 6:01 AM CDT 9:09 PM CDT
Astronomical Twilight 5:30 AM CDT 9:40 PM CDT
Moon No Moon Rise 12:33 PM CDT (8/13)
Length of Visible Light 14h 07m
Length of Day
13h 17m
Waning Gibbous, 65% of the Moon is Illuminated
Aug 13
Waning Gibbous
Aug 14
Last Quarter
Aug 21
New
Aug 29
First Quarter
Sep 6
Full

Hourly Weather History & Observations

Time (CDT) Temp. Heat Index Dew Point Humidity Pressure Visibility Wind Dir Wind Speed Gust Speed Precip Events Conditions
12:51 AM 82.9 °F 88.0 °F 72.0 °F 69% 29.89 in 10.0 mi Variable 5.8 mph - N/A   Clear
1:51 AM 82.0 °F 86.7 °F 72.0 °F 71% 29.88 in 10.0 mi South 6.9 mph - N/A   Clear
2:51 AM 81.0 °F 85.8 °F 73.0 °F 77% 29.89 in 10.0 mi Variable 3.5 mph - N/A   Clear
3:51 AM 80.1 °F 84.2 °F 73.0 °F 79% 29.88 in 10.0 mi South 3.5 mph - N/A   Clear
4:51 AM 79.0 °F - 73.9 °F 84% 29.87 in 10.0 mi Variable 4.6 mph - N/A   Clear
5:51 AM 79.0 °F - 73.9 °F 84% 29.86 in 10.0 mi South 4.6 mph - N/A   Clear
6:51 AM 78.1 °F - 73.9 °F 87% 29.88 in 10.0 mi Variable 3.5 mph - N/A   Partly Cloudy
7:51 AM 79.0 °F - 73.9 °F 84% 29.88 in 10.0 mi Variable 3.5 mph - N/A   Clear
8:51 AM 82.0 °F 87.4 °F 73.0 °F 74% 29.91 in 10.0 mi Variable 5.8 mph - N/A   Clear
9:51 AM 86.0 °F 92.2 °F 72.0 °F 63% 29.91 in 10.0 mi SSW 5.8 mph - N/A   Clear
10:51 AM 89.1 °F 95.0 °F 71.1 °F 55% 29.90 in 10.0 mi Variable 5.8 mph - N/A   Clear
11:51 AM 93.0 °F 99.0 °F 70.0 °F 47% 29.90 in 10.0 mi Variable 4.6 mph - N/A   Clear
12:51 PM 96.1 °F 101.0 °F 68.0 °F 40% 29.88 in 10.0 mi Variable 5.8 mph 16.1 mph N/A   Clear
1:51 PM 98.1 °F 102.4 °F 66.9 °F 36% 29.87 in 10.0 mi SSE 8.1 mph - N/A   Clear
2:51 PM 100.0 °F 103.6 °F 64.9 °F 32% 29.85 in 10.0 mi Variable 6.9 mph - N/A   Clear
3:51 PM 99.0 °F 101.7 °F 64.0 °F 32% 29.83 in 10.0 mi Variable 6.9 mph - N/A   Clear
4:51 PM 99.0 °F 100.5 °F 63.0 °F 30% 29.81 in 10.0 mi Variable 5.8 mph - N/A   Clear
5:51 PM 98.1 °F 100.7 °F 64.0 °F 33% 29.78 in 10.0 mi Variable 3.5 mph - N/A   Clear
6:51 PM 96.1 °F 98.8 °F 64.9 °F 36% 29.77 in 10.0 mi SSE 6.9 mph - N/A   Clear
7:51 PM 93.9 °F 96.1 °F 64.9 °F 38% 29.78 in 10.0 mi Variable 4.6 mph - N/A   Clear
8:51 PM 93.0 °F 96.4 °F 66.9 °F 42% 29.80 in 10.0 mi SSE 6.9 mph - N/A   Clear
9:51 PM 89.1 °F 92.9 °F 68.0 °F 50% 29.82 in 10.0 mi Variable 6.9 mph - N/A   Clear
10:51 PM 86.0 °F 91.5 °F 71.1 °F 61% 29.82 in 10.0 mi South 6.9 mph 17.3 mph N/A   Clear
11:51 PM 84.0 °F 90.2 °F 73.0 °F 69% 29.83 in 10.0 mi South 8.1 mph - N/A   Clear